Stündliche Wetter Otrada

Heute, 11 April, Sonntag

Zeit Temperatur Niederschläge Wind Luftdruck Luftfeuchtigkeit
00:00 +4°C° 0 mm 2 m/S 751 mmHg 56%
01:00 +4°C° 0 mm 2 m/S 751 mmHg 58%
02:00 +3°C° 0 mm 2 m/S 751 mmHg 60%
03:00 +3°C° 0 mm 2 m/S 752 mmHg 62%
04:00 +2°C° 0 mm 2 m/S 752 mmHg 63%
05:00 +3°C° 0 mm 1 m/S 752 mmHg 64%
06:00 +3°C° 0 mm 1 m/S 752 mmHg 66%
07:00 +5°C° 0 mm 1 m/S 753 mmHg 61%
08:00 +6°C° 0 mm 1 m/S 753 mmHg 57%
09:00 +8°C° 0 mm 1 m/S 753 mmHg 53%
10:00 +9°C° 0 mm 1 m/S 754 mmHg 49%
11:00 +10°C° 0 mm 1 m/S 754 mmHg 46%
12:00 +12°C° 0 mm 1 m/S 754 mmHg 42%
13:00 +12°C° 0 mm 1 m/S 754 mmHg 40%
14:00 +13°C° 0 mm 2 m/S 754 mmHg 39%
15:00 +14°C° 0 mm 2 m/S 754 mmHg 38%
16:00 +12°C° 0 mm 3 m/S 754 mmHg 41%
17:00 +12°C° 0 mm 3 m/S 754 mmHg 43%
18:00 +12°C° 0 mm 3 m/S 754 mmHg 46%
19:00 +11°C° 0 mm 3 m/S 754 mmHg 51%
20:00 +9°C° 0 mm 3 m/S 754 mmHg 57%
21:00 +8°C° 0 mm 3 m/S 755 mmHg 62%
22:00 +7°C° 0 mm 3 m/S 755 mmHg 64%
23:00 +7°C° 0 mm 3 m/S 755 mmHg 65%

Morgen, 12 April, Montag

Zeit Temperatur Niederschläge Wind Luftdruck Luftfeuchtigkeit
00:00 +5°C° 0 mm 3 m/S 755 mmHg 67%
01:00 +4°C° 0 mm 3 m/S 755 mmHg 68%
02:00 +4°C° 0 mm 3 m/S 755 mmHg 69%
03:00 +3°C° 0 mm 4 m/S 755 mmHg 70%
04:00 +3°C° 0 mm 4 m/S 755 mmHg 68%
05:00 +3°C° 0 mm 4 m/S 755 mmHg 66%
06:00 +2°C° 0 mm 5 m/S 754 mmHg 63%
07:00 +3°C° 0 mm 5 m/S 754 mmHg 66%
08:00 +3°C° 0 mm 6 m/S 754 mmHg 69%
09:00 +4°C° 0 mm 6 m/S 754 mmHg 72%
10:00 +7°C° 0 mm 6 m/S 754 mmHg 72%
11:00 +8°C° 0 mm 6 m/S 754 mmHg 73%
12:00 +9°C° 0 mm 6 m/S 754 mmHg 73%
13:00 +11°C° 0 mm 6 m/S 753 mmHg 71%
14:00 +13°C° 0 mm 6 m/S 753 mmHg 69%
15:00 +14°C° 0 mm 6 m/S 753 mmHg 66%
16:00 +14°C° 0 mm 5 m/S 752 mmHg 67%
17:00 +14°C° 0 mm 5 m/S 752 mmHg 67%
18:00 +14°C° 0 mm 5 m/S 752 mmHg 68%
19:00 +13°C° 0 mm 4 m/S 752 mmHg 73%
20:00 +12°C° 0 mm 4 m/S 752 mmHg 77%
21:00 +11°C° 0 mm 4 m/S 752 mmHg 82%
22:00 +10°C° 0 mm 4 m/S 752 mmHg 83%
23:00 +10°C° 0 mm 4 m/S 751 mmHg 84%

übermorgen, 13 April, Dienstag

Zeit Temperatur Niederschläge Wind Luftdruck Luftfeuchtigkeit
00:00 +10°C° 0 mm 4 m/S 751 mmHg 85%
01:00 +8°C° 0 mm 4 m/S 751 mmHg 82%
02:00 +8°C° 0 mm 4 m/S 751 mmHg 80%
03:00 +7°C° 0 mm 4 m/S 751 mmHg 78%
04:00 +8°C° 0 mm 3 m/S 751 mmHg 77%
05:00 +8°C° 0 mm 3 m/S 751 mmHg 77%
06:00 +7°C° 0 mm 3 m/S 751 mmHg 76%
07:00 +8°C° 0 mm 4 m/S 751 mmHg 69%
08:00 +11°C° 0 mm 4 m/S 751 mmHg 63%
09:00 +12°C° 0 mm 5 m/S 751 mmHg 57%
10:00 +14°C° 0 mm 5 m/S 751 mmHg 51%
11:00 +15°C° 0 mm 5 m/S 751 mmHg 46%
12:00 +17°C° 0 mm 5 m/S 751 mmHg 40%
13:00 +19°C° 0 mm 5 m/S 751 mmHg 37%
14:00 +19°C° 0 mm 5 m/S 751 mmHg 33%
15:00 +20°C° 0 mm 6 m/S 750 mmHg 29%
16:00 +19°C° 0 mm 5 m/S 750 mmHg 33%
17:00 +19°C° 0 mm 4 m/S 750 mmHg 37%
18:00 +18°C° 0 mm 3 m/S 750 mmHg 41%
19:00 +17°C° 0 mm 3 m/S 750 mmHg 46%
20:00 +14°C° 0 mm 3 m/S 750 mmHg 51%
21:00 +13°C° 0 mm 3 m/S 750 mmHg 57%
22:00 +12°C° 0 mm 4 m/S 750 mmHg 59%
23:00 +12°C° 0 mm 4 m/S 750 mmHg 61%

14 April, Mittwoch

Zeit Temperatur Niederschläge Wind Luftdruck Luftfeuchtigkeit
00:00 +11°C° 0 mm 4 m/S 749 mmHg 63%
01:00 +10°C° 0 mm 4 m/S 749 mmHg 64%
02:00 +10°C° 0 mm 3 m/S 749 mmHg 66%
03:00 +9°C° 0 mm 3 m/S 749 mmHg 68%
04:00 +9°C° 0 mm 3 m/S 749 mmHg 68%
05:00 +8°C° 0 mm 3 m/S 749 mmHg 69%
06:00 +8°C° 0 mm 3 m/S 749 mmHg 70%
07:00 +9°C° 0 mm 3 m/S 749 mmHg 66%
08:00 +11°C° 0 mm 4 m/S 749 mmHg 61%
09:00 +12°C° 0 mm 4 m/S 749 mmHg 57%
10:00 +14°C° 0 mm 4 m/S 748 mmHg 51%
11:00 +15°C° 0 mm 5 m/S 748 mmHg 44%
12:00 +17°C° 0 mm 5 m/S 748 mmHg 37%
13:00 +19°C° 0 mm 5 m/S 747 mmHg 34%
14:00 +19°C° 0 mm 6 m/S 747 mmHg 32%
15:00 +20°C° 0 mm 6 m/S 747 mmHg 29%
16:00 +19°C° 0 mm 5 m/S 746 mmHg 32%
17:00 +19°C° 0 mm 4 m/S 746 mmHg 35%
18:00 +18°C° 0 mm 3 m/S 746 mmHg 37%
19:00 +17°C° 0 mm 3 m/S 746 mmHg 42%
20:00 +14°C° 0 mm 3 m/S 746 mmHg 47%
21:00 +13°C° 0 mm 3 m/S 746 mmHg 52%
22:00 +12°C° 0 mm 3 m/S 746 mmHg 55%
23:00 +12°C° 0 mm 3 m/S 745 mmHg 58%

15 April, Donnerstag

Zeit Temperatur Niederschläge Wind Luftdruck Luftfeuchtigkeit
00:00 +11°C° 0 mm 3 m/S 745 mmHg 60%
01:00 +11°C° 0 mm 3 m/S 745 mmHg 62%
02:00 +10°C° 0 mm 3 m/S 745 mmHg 64%
03:00 +10°C° 0 mm 3 m/S 745 mmHg 66%
04:00 +9°C° 0 mm 3 m/S 745 mmHg 67%
05:00 +9°C° 0 mm 2 m/S 745 mmHg 68%
06:00 +9°C° 0 mm 2 m/S 745 mmHg 69%
07:00 +10°C° 0 mm 2 m/S 745 mmHg 65%
08:00 +12°C° 0 mm 2 m/S 745 mmHg 61%
09:00 +13°C° 0 mm 2 m/S 745 mmHg 57%
10:00 +15°C° 0 mm 2 m/S 745 mmHg 52%
11:00 +16°C° 0 mm 2 m/S 745 mmHg 47%
12:00 +18°C° 0 mm 2 m/S 745 mmHg 42%
13:00 +18°C° 0 mm 2 m/S 744 mmHg 40%
14:00 +19°C° 0 mm 2 m/S 744 mmHg 38%
15:00 +20°C° 0 mm 1 m/S 744 mmHg 36%
16:00 +20°C° 0 mm 1 m/S 744 mmHg 39%
17:00 +19°C° 0 mm 1 m/S 744 mmHg 41%
18:00 +19°C° 0 mm 1 m/S 743 mmHg 44%
19:00 +17°C° 0 mm 2 m/S 743 mmHg 46%
20:00 +16°C° 0 mm 2 m/S 743 mmHg 49%
21:00 +14°C° 0 mm 2 m/S 743 mmHg 51%
22:00 +13°C° 0 mm 3 m/S 743 mmHg 54%
23:00 +12°C° 0 mm 3 m/S 743 mmHg 56%

16 April, Freitag

Zeit Temperatur Niederschläge Wind Luftdruck Luftfeuchtigkeit
00:00 +12°C° 0 mm 3 m/S 743 mmHg 58%
01:00 +11°C° 0 mm 3 m/S 743 mmHg 60%
02:00 +11°C° 0 mm 3 m/S 743 mmHg 63%
03:00 +11°C° 0 mm 3 m/S 743 mmHg 65%
04:00 +10°C° 0 mm 4 m/S 744 mmHg 70%
05:00 +9°C° 0 mm 5 m/S 744 mmHg 75%
06:00 +8°C° 0 mm 6 m/S 744 mmHg 80%
07:00 +8°C° 0.1 mm 7 m/S 745 mmHg 81%
08:00 +7°C° 0.1 mm 8 m/S 745 mmHg 81%
09:00 +7°C° 0.1 mm 9 m/S 746 mmHg 82%
10:00 +7°C° 0.1 mm 9 m/S 746 mmHg 79%
11:00 +7°C° 0.1 mm 9 m/S 747 mmHg 77%
12:00 +7°C° 0.1 mm 9 m/S 747 mmHg 74%
13:00 +7°C° 0 mm 9 m/S 747 mmHg 71%
14:00 +7°C° 0 mm 9 m/S 748 mmHg 69%
15:00 +7°C° 0 mm 9 m/S 748 mmHg 66%
16:00 +7°C° 0 mm 9 m/S 748 mmHg 60%
17:00 +7°C° 0 mm 8 m/S 748 mmHg 55%
18:00 +7°C° 0 mm 8 m/S 748 mmHg 50%
19:00 +7°C° 0 mm 8 m/S 749 mmHg 50%
20:00 +6°C° 0 mm 8 m/S 749 mmHg 50%
21:00 +5°C° 0 mm 8 m/S 750 mmHg 50%
22:00 +4°C° 0 mm 8 m/S 750 mmHg 52%
23:00 +3°C° 0 mm 7 m/S 751 mmHg 54%
Mehr zeigen

Wir brauchen deine Erlaubnis

Meteoprog und unser Service Anbieter werden persönliche Daten aufbewahren, so wie Cookies, Geräte Bezeichnung oder ähnliche Technologien von deinem Gerät und Prozess, so wie Persönliche Daten Inhalte und Werbungen, genauso wie social Media und den Verkehr zu analysieren.

  • Aufbewahrung und/oder Zugang zu deiner Geräte Informationen.

    Cookies, Geräte Bezeichnung oder andere Informationen, können aufbewahrt oder Zugang zu deinem Gerät erhalten, für den Grund, der oben angegeben wird.

  • Personalisierte Werbung und Inhalte, Messungen, Einblick in das Publikum und Produkt Entwicklung.

    Werbungen und Inhalte können personalisiert werden, basierend auf ein Profil. Mehr Daten können besser personalisierte Werbungen und Inhalte hinzufügen. Werbung und Inhalte können gezeigt und gemessen werden. Einblicke über das Publikum, welche die Werbung gesehen haben und den Inhalt, können abgeleitet werden. So wie Daten können genutzt werden, um es zu verbessern oder die Benutzer Erfahrung zu verbessern das System und die Software.

Wenn du “Ich stimme zu” klickst, erlaubst du uns, die Cookies zu benutzen die Geräte Bezeichnung, den Web oder ähnliche Technologien zu benutzen. Deine Settings, können in deinem Gerät bei deinem Browser geändert werden.

Für den bestimmten Zweck, berechtigten Interessen beruhen darauf, mehr als auf den Inhalt. Du kannst mehr darüber in unseren Privaten und Cookie Politik lesen.